Wind_Speed
18 17 17 18 18 18 18 19 20 20 19 18 18 17 17 17 16 16 16 16 16 16 16 16 17 18 19 19 19 19 18 18 17 17 18 18 18 18 17 17 17 17 17
17 17 18 18 18 18 18 19 19 20 19 19 19 18 18 17 16 16 16 16 16 16 16 16 16 17 17 18 18 18 18 18 17 17 17 16 16 17 17 18 17 17 17
18 18 19 18 18 18 18 18 18 18 18 18 19 19 18 18 16 16 15 15 15 15 15 15 15 16 16 16 16 17 17 17 17 17 17 17 17 17 17 18 18 18 18
20 20 19 18 18 17 17 17 17 18 18 19 18 18 17 17 17 15 15 15 15 15 15 14 14 15 15 15 15 16 17 17 17 17 17 17 17 18 18 18 19 19 18
20 19 18 18 18 17 17 17 17 17 18 18 17 17 16 16 16 16 15 15 15 15 15 14 13 14 14 14 15 16 16 16 17 17 17 17 17 18 18 18 19 19 19
20 19 19 19 18 17 17 17 17 17 17 17 17 16 15 15 15 15 15 14 14 14 14 13 13 13 14 15 16 16 16 16 17 17 18 17 17 18 18 18 18 18 19
21 20 20 20 19 18 17 17 17 17 17 16 16 16 16 15 15 14 13 13 13 13 13 13 13 13 14 15 15 15 15 16 16 16 16 15 16 16 17 17 18 18 19
22 20 20 20 19 18 18 18 18 18 18 17 16 16 15 15 14 14 13 13 12 12 12 13 14 15 15 16 15 15 15 15 16 16 16 16 16 16 16 17 17 18 19
21 21 20 20 19 19 18 18 18 18 18 17 16 16 15 15 15 15 14 14 13 13 13 13 15 15 16 16 16 15 15 15 15 15 16 16 17 17 17 18 18 18 18
21 20 20 19 19 18 18 18 19 18 18 17 16 15 15 15 15 15 15 15 14 14 14 14 14 15 16 17 17 16 16 16 16 16 16 17 17 17 17 18 18 19 19
21 20 20 19 19 19 18 18 19 18 17 17 16 16 15 15 15 15 15 15 14 14 14 13 14 14 14 15 16 17 17 17 17 17 17 18 18 18 18 19 20 20 20
22 21 21 21 21 20 19 19 19 18 18 17 17 16 16 15 15 16 15 15 15 15 14 14 15 15 15 15 16 17 17 18 18 18 18 18 18 19 19 19 20 20 21
22 22 21 22 22 22 21 20 19 18 18 17 17 16 16 16 15 15 15 15 15 15 15 14 15 15 15 16 16 16 17 17 18 19 19 19 19 19 20 20 21 21 22
22 22 22 22 22 22 22 21 19 19 18 17 17 16 16 15 16 16 16 16 15 15 15 15 16 16 16 16 17 17 17 17 18 18 19 19 19 19 20 21 21 22 22
22 22 22 22 22 22 22 22 21 19 19 19 18 17 16 16 16 16 16 16 15 15 15 16 16 17 17 17 17 17 17 17 18 18 19 19 19 19 20 20 21 22 23
21 22 21 21 21 21 21 21 21 20 19 19 18 17 16 16 16 15 15 16 16 15 14 14 15 16 16 16 16 16 16 17 17 17 18 18 19 20 20 21 22 22 23
21 21 21 21 21 21 20 20 20 20 20 19 19 18 17 16 16 16 16 16 16 16 15 15 15 15 15 15 15 15 16 17 17 17 17 18 19 19 20 21 22 23 23
21 21 21 21 20 20 20 19 20 20 20 19 19 19 18 18 17 17 17 17 17 17 17 17 16 16 15 15 15 15 16 16 16 16 17 18 19 20 21 21 22 23 24
20 21 20 20 20 19 19 19 20 20 20 19 19 19 19 18 19 18 18 18 18 18 17 16 16 16 17 17 17 16 17 17 17 17 18 19 20 21 22 22 23 23 24
19 19 19 19 19 19 20 20 20 19 19 20 19 19 19 19 19 19 18 18 18 18 17 17 17 17 18 18 19 19 18 18 18 19 19 20 21 21 22 23 24 24 25
19 19 19 19 19 19 20 20 19 20 20 20 20 20 20 20 20 19 18 18 17 17 18 18 18 19 19 20 20 20 20 20 20 20 21 22 22 23 24 25 26 26 27
20 20 19 19 19 20 20 20 20 20 20 20 20 20 20 19 18 18 18 17 17 18 18 18 18 19 20 20 21 21 20 20 21 22 23 23 24 24 25 26 27 27 27
21 20 20 20 20 20 20 20 20 19 19 20 19 19 20 19 19 18 18 18 18 18 18 18 19 19 20 20 20 20 21 21 22 22 23 24 24 25 26 26 27 27 26
20 20 20 20 20 20 19 20 20 19 18 19 19 19 20 20 20 19 19 19 19 19 19 20 20 20 20 20 20 21 21 22 23 23 24 24 25 25 26 26 26 26 26
21 21 20 20 20 20 20 20 20 20 20 20 20 20 21 21 21 21 21 21 21 21 21 21 21 22 22 22 22 22 23 23 24 24 25 25 26 26 25 25 25 25 25
20 20 20 20 20 20 20 20 20 20 19 20 20 20 20 20 20 21 22 22 22 22 22 22 22 22 23 23 23 23 24 24 24 24 24 25 25 25 24 24 24 24 24
Wind_Direction
288 292 293 292 292 292 292 293 295 296 292 291 291 291 294 294 290 286 277 276 273 272 267 262 258 258 255 254 255 256 256 258 259 257 256 258 259 257 257 261 265 264 265
288 292 293 292 291 289 290 292 295 296 291 288 288 290 292 293 291 287 278 275 273 270 265 263 258 255 254 255 253 252 255 256 255 256 256 257 257 256 259 262 264 262 265
291 293 294 293 291 289 289 292 294 297 295 291 287 287 286 288 287 282 278 275 272 268 265 262 258 255 252 252 253 252 251 252 254 256 256 257 257 260 261 264 265 264 264
288 291 292 291 291 291 290 291 293 296 298 295 291 288 287 285 283 279 278 276 272 267 262 259 258 254 251 251 252 252 249 247 251 253 256 256 257 262 263 264 264 263 264
286 289 289 291 291 291 291 293 294 295 299 298 293 288 285 285 285 282 279 276 273 267 262 259 255 254 250 248 249 249 250 250 251 254 255 256 258 261 262 264 264 265 266
283 287 289 288 287 287 291 294 295 297 300 299 295 290 286 287 287 286 285 279 271 267 260 258 255 256 255 250 248 248 250 253 253 254 256 255 259 263 264 264 266 266 267
281 282 285 288 286 285 289 292 294 295 298 297 294 292 289 286 285 286 286 282 276 271 263 258 256 255 253 251 250 250 251 252 252 253 255 256 259 264 266 265 267 269 270
278 280 282 285 284 283 288 290 291 293 293 293 291 290 289 285 283 283 284 284 280 276 269 260 255 253 253 251 251 253 254 255 255 255 256 257 258 263 264 267 268 270 272
276 277 279 280 283 285 285 287 288 290 291 290 288 287 286 285 286 284 283 283 279 276 273 267 260 256 255 254 255 255 256 256 257 256 256 259 262 263 265 267 268 270 274
273 275 276 277 280 285 286 286 286 287 288 288 286 286 286 285 285 285 283 282 278 275 274 270 264 259 257 255 255 254 256 259 261 260 260 262 264 266 269 271 272 272 274
270 273 274 277 278 281 283 284 285 284 284 285 283 282 283 283 280 282 284 282 276 273 274 268 265 262 259 258 256 256 257 258 261 261 261 263 266 269 271 271 272 273 275
269 272 273 275 276 278 280 281 283 282 285 283 283 279 279 279 279 279 279 280 277 275 274 269 266 262 261 264 263 262 262 263 265 264 264 264 267 270 272 273 275 276 277
269 271 272 273 274 277 278 277 279 281 283 281 281 278 277 278 278 277 277 279 279 277 273 269 266 262 262 265 265 264 267 269 267 264 264 266 269 271 273 276 277 278 279
269 270 270 272 273 274 275 275 275 277 276 276 279 276 273 274 275 276 277 278 279 278 272 270 269 266 264 265 265 266 268 270 269 266 266 267 271 274 277 277 279 282 283
269 270 271 272 273 273 273 273 272 271 273 273 272 272 273 273 274 273 276 277 279 277 274 271 269 267 264 266 269 269 271 272 272 271 271 271 273 277 280 281 283 284 284
268 268 269 271 270 272 272 271 269 266 267 269 269 270 270 271 275 273 274 276 278 279 275 273 269 267 267 267 268 269 272 272 271 270 272 275 277 279 282 284 284 286 287
266 266 267 269 268 270 272 270 265 262 264 265 266 268 270 272 275 275 276 277 277 277 275 274 270 267 268 269 268 271 272 272 274 274 274 276 277 279 283 284 286 286 287
264 264 266 267 268 268 270 268 264 263 264 261 264 267 268 269 272 274 276 276 275 273 273 276 275 270 269 270 270 272 272 272 274 275 277 279 281 281 283 286 287 287 288
263 264 265 265 266 266 268 268 266 266 264 261 262 265 266 268 270 274 276 273 273 274 273 274 275 274 271 270 271 272 272 273 275 276 279 283 285 285 286 287 287 288 290
266 266 264 264 264 265 266 267 268 267 264 262 263 265 267 269 270 272 275 274 274 275 275 275 276 275 272 271 273 273 272 273 275 278 281 284 286 287 287 288 289 290 291
265 266 266 265 264 265 267 269 270 269 265 265 266 267 268 268 269 270 271 272 274 275 276 275 274 276 276 274 274 274 274 275 277 279 282 284 286 287 287 288 289 290 291
264 264 264 264 262 264 268 270 272 270 266 266 267 268 267 265 266 268 269 270 271 274 275 275 274 275 277 277 275 275 275 276 279 281 283 285 285 286 288 288 289 290 290
262 261 261 263 262 263 266 269 271 269 266 265 265 264 265 264 265 266 268 268 270 273 274 275 277 278 279 279 277 277 278 279 281 283 284 284 285 287 288 289 289 289 289
262 260 260 261 262 263 265 267 269 268 268 266 264 264 264 264 265 265 265 267 270 273 274 274 277 278 278 278 278 279 281 283 284 285 286 286 287 288 290 290 288 288 289
262 262 262 262 263 263 264 266 267 266 268 266 264 264 264 264 265 265 265 268 271 274 275 274 276 276 277 279 280 281 282 285 286 287 287 288 290 291 291 292 291 291 291
263 262 262 265 266 265 266 267 267 267 268 267 266 266 266 266 266 266 266 268 271 273 275 274 276 276 276 278 280 281 283 285 286 288 289 290 291 291 291 291 291 291 290
Height
5825 5823 5822 5820 5819 5817 5816 5814 5812 5810 5807 5806 5804 5802 5799 5797 5795 5793 5791 5790 5789 5788 5787 5788 5788 5789 5790 5791 5792 5794 5794 5795 5796 5797 5797 5797 5798 5798 5798 5799 5799 5799 5798
5819 5817 5816 5815 5813 5812 5810 5808 5806 5804 5801 5800 5798 5796 5794 5792 5790 5788 5786 5785 5784 5783 5783 5782 5783 5783 5784 5786 5787 5788 5789 5790 5791 5791 5792 5792 5793 5793 5794 5794 5793 5793 5793
5813 5812 5811 5809 5808 5806 5805 5803 5801 5798 5796 5794 5792 5790 5789 5787 5785 5783 5781 5780 5779 5778 5778 5778 5778 5778 5779 5781 5781 5783 5784 5785 5785 5786 5787 5787 5788 5788 5788 5788 5788 5788 5787
5808 5807 5805 5804 5802 5801 5799 5798 5796 5793 5791 5789 5786 5784 5783 5781 5780 5779 5777 5776 5775 5774 5773 5773 5773 5774 5775 5776 5777 5778 5778 5779 5780 5781 5782 5782 5783 5783 5783 5783 5783 5782 5782
5802 5801 5800 5799 5798 5796 5794 5793 5791 5789 5786 5784 5781 5779 5778 5777 5775 5773 5773 5771 5770 5769 5769 5769 5769 5770 5770 5771 5772 5773 5774 5774 5775 5776 5776 5777 5778 5778 5778 5778 5778 5778 5777
5797 5796 5795 5794 5793 5791 5790 5788 5786 5784 5782 5779 5777 5775 5773 5772 5770 5769 5768 5767 5766 5765 5765 5765 5765 5766 5766 5767 5768 5768 5769 5769 5770 5770 5771 5772 5772 5772 5772 5773 5773 5772 5772
5792 5791 5789 5788 5788 5786 5784 5783 5781 5779 5777 5775 5773 5771 5769 5768 5767 5765 5764 5763 5762 5761 5761 5761 5761 5762 5762 5763 5763 5764 5765 5765 5765 5766 5766 5767 5767 5768 5768 5768 5767 5767 5766
5785 5784 5783 5783 5782 5781 5779 5777 5776 5774 5772 5770 5768 5767 5765 5764 5763 5761 5760 5759 5758 5757 5757 5757 5757 5758 5758 5759 5759 5760 5760 5761 5761 5761 5761 5762 5763 5763 5762 5763 5762 5762 5761
5778 5777 5777 5777 5776 5774 5773 5772 5770 5769 5767 5765 5764 5762 5761 5760 5759 5757 5756 5755 5754 5754 5753 5753 5753 5754 5754 5755 5755 5756 5756 5756 5756 5756 5757 5757 5757 5757 5757 5757 5757 5756 5755
5771 5771 5770 5770 5769 5769 5768 5767 5765 5764 5762 5761 5759 5758 5757 5756 5755 5753 5752 5751 5750 5750 5749 5749 5749 5749 5749 5750 5750 5751 5752 5752 5752 5752 5752 5752 5752 5752 5752 5751 5751 5750 5749
5765 5765 5764 5763 5763 5763 5762 5761 5760 5758 5757 5756 5755 5753 5752 5751 5750 5749 5747 5746 5746 5745 5745 5745 5745 5745 5745 5745 5745 5746 5747 5747 5747 5747 5747 5747 5747 5747 5747 5746 5745 5745 5744
5758 5758 5757 5757 5757 5756 5756 5755 5754 5753 5752 5751 5749 5748 5747 5746 5745 5744 5743 5742 5741 5741 5741 5740 5740 5740 5740 5740 5740 5741 5741 5741 5741 5741 5742 5742 5742 5742 5742 5741 5740 5738 5737
5751 5751 5750 5750 5750 5749 5749 5748 5748 5747 5746 5745 5744 5743 5743 5741 5740 5740 5738 5738 5737 5736 5736 5736 5735 5735 5735 5735 5735 5735 5735 5735 5736 5736 5736 5736 5736 5736 5736 5735 5734 5732 5731
5743 5744 5743 5743 5743 5743 5742 5742 5741 5741 5740 5740 5739 5739 5738 5737 5736 5735 5734 5733 5732 5731 5731 5731 5730 5730 5730 5730 5730 5730 5730 5730 5730 5731 5731 5731 5730 5730 5729 5728 5727 5726 5725
5736 5736 5736 5736 5736 5735 5735 5735 5735 5735 5734 5734 5734 5733 5732 5732 5731 5730 5729 5728 5727 5726 5726 5725 5725 5725 5725 5725 5725 5725 5725 5725 5725 5725 5725 5725 5724 5724 5723 5722 5721 5719 5718
5729 5729 5729 5729 5729 5728 5728 5727 5727 5728 5728 5728 5728 5728 5727 5727 5726 5725 5724 5723 5722 5721 5721 5720 5720 5720 5720 5720 5720 5720 5720 5720 5720 5720 5720 5719 5719 5718 5717 5716 5714 5713 5711
5722 5722 5722 5722 5721 5721 5721 5720 5721 5722 5722 5722 5722 5722 5722 5721 5720 5720 5719 5718 5717 5717 5716 5715 5715 5715 5715 5715 5715 5715 5715 5715 5714 5714 5713 5713 5712 5712 5711 5709 5708 5706 5704
5715 5715 5715 5714 5714 5714 5714 5714 5714 5715 5716 5716 5716 5716 5716 5716 5715 5715 5714 5713 5712 5712 5711 5711 5710 5710 5710 5709 5709 5709 5709 5709 5708 5708 5707 5707 5706 5704 5703 5702 5700 5699 5697
5708 5708 5708 5707 5707 5708 5708 5708 5708 5709 5709 5710 5710 5710 5710 5710 5710 5709 5708 5708 5707 5706 5706 5705 5705 5704 5704 5704 5704 5704 5703 5703 5703 5702 5701 5700 5699 5698 5696 5695 5693 5691 5689
5701 5701 5701 5701 5701 5702 5702 5702 5702 5702 5702 5703 5703 5704 5704 5704 5704 5703 5703 5702 5701 5701 5700 5700 5699 5699 5699 5698 5698 5698 5697 5697 5697 5696 5695 5694 5692 5691 5689 5687 5686 5684 5682
5695 5695 5695 5695 5695 5695 5696 5696 5696 5696 5696 5696 5697 5697 5697 5697 5697 5697 5697 5696 5696 5695 5695 5694 5694 5693 5693 5692 5692 5691 5691 5691 5690 5689 5688 5687 5685 5683 5682 5680 5678 5676 5674
5688 5688 5689 5689 5689 5689 5689 5689 5689 5689 5689 5689 5689 5690 5689 5690 5690 5691 5690 5690 5690 5689 5689 5688 5688 5687 5687 5686 5686 5685 5684 5684 5683 5682 5680 5679 5677 5676 5674 5671 5669 5667 5665
5681 5682 5682 5682 5682 5682 5682 5682 5682 5682 5682 5682 5682 5683 5683 5683 5684 5684 5684 5684 5684 5683 5683 5682 5682 5681 5680 5679 5679 5678 5677 5676 5675 5674 5672 5671 5669 5667 5665 5663 5661 5659 5657
5674 5674 5675 5675 5675 5675 5675 5676 5676 5676 5675 5676 5676 5676 5676 5677 5677 5677 5677 5677 5677 5677 5676 5675 5675 5674 5673 5672 5672 5671 5670 5669 5668 5666 5665 5663 5661 5659 5657 5655 5653 5650 5648
5667 5667 5668 5668 5668 5668 5668 5669 5669 5669 5669 5669 5669 5669 5670 5670 5670 5670 5670 5670 5670 5669 5669 5668 5668 5667 5666 5665 5665 5664 5663 5661 5660 5658 5656 5654 5652 5650 5648 5646 5644 5642 5640
5660 5660 5661 5661 5661 5661 5661 5662 5662 5662 5662 5662 5663 5663 5663 5663 5663 5663 5663 5663 5662 5662 5661 5661 5660 5660 5659 5658 5657 5656 5654 5653 5651 5649 5648 5646 5644 5642 5640 5638 5636 5634 5632